Group_ship,Cruise,JD_GMT,Date_DDMMYYYY,TIME_HH:MM:SS,Lat_dec_degree,Long_dec_degree,xCO2eq_ppm,xCO2a_ppm,Pres_Equi_hPa,Pres_sealevel_hPa,EqTemp_C,SST(TSG)_C,Sal(TSG)_Permil,Water_flow_l/min,Gasflow_IR_ml/min,Temp_IR_C,Pres_IR_hPa,Ship_heading_true_degree,Ship_speed_knot,Wind_dir_rel_degree,Wind_speed_rel_m/s,fCO2W@SST_uatm,Qcflag_water,fCO2a_uatm,Qcflag_air,dfCO2_uatm,Fluoro_ug/l,Wind_speed_true_m/s,Wind_dir_true_degree,Air_temp_C,Oxygen
AOML_Explorer,Ex0514E,94.035,4042005,0:49:43,26.221,-79.138,364.08,-9,1019.15,1016.61,25.01,25.07,36.394,1.6,77.79,30.5,1019.15,83.7,21.2,302.1,12.11,354.72,2,-9,9,-9,0.12,11.42,330.01,19.39,-9
AOML_Explorer,Ex0514E,94.036,4042005,0:52:16,26.222,-79.121,363.56,-9,1019.32,1016.86,24.95,24.97,36.417,1.58,78.66,30.5,1019.32,92,21.1,290.7,10.31,353.86,2,-9,9,-9,0.13,12.3,323.99,19.31,-9
AOML_Explorer,Ex0514E,94.038,4042005,0:54:49,26.221,-79.105,363.09,-9,1019.34,1016.6,24.85,24.83,36.454,1.58,78.45,30.5,1019.34,91.8,21.2,285.2,11.81,352.93,2,-9,9,-9,0.18,14.1,326.34,19.42,-9
AOML_Explorer,Ex0514E,94.04,4042005,0:57:22,26.221,-79.088,362.55,-9,1019.49,1016.86,24.75,24.81,36.443,1.59,78.52,30.5,1019.49,91.6,21,299.8,10.71,353.44,2,-9,9,-9,0.13,11.04,330.02,19.34,-9
AOML_Explorer,Ex0514E,94.042,4042005,0:59:55,26.221,-79.071,361.83,-9,1019.49,1016.87,24.67,24.82,36.431,1.57,77.87,30.5,1019.49,88.9,21.3,289.3,11.21,354,2,-9,9,-9,0.14,13.08,323.61,19.34,-9
AOML_Explorer,Ex0514E,94.057,4042005,1:21:40,26.223,-78.92,358.49,-9,1019.81,1017.14,24.84,25.02,36.389,1.59,78.28,30.56,1019.81,95.2,23,300.9,12.61,351.1,2,-9,9,-9,0.14,12.3,338.34,19.36,-9
AOML_Explorer,Ex0514E,94.058,4042005,1:24:13,26.221,-78.902,358.67,-9,1019.81,1017.14,24.84,25.01,36.386,1.58,77.88,30.56,1019.81,100.4,23.1,295.2,11.31,351.17,2,-9,9,-9,0.15,12.64,335.08,19.39,-9
AOML_Explorer,Ex0514E,94.06,4042005,1:26:46,26.217,-78.884,358.72,-9,1019.82,1017.13,24.84,25.01,36.387,1.6,78.31,30.56,1019.82,105.5,23.1,288.1,11.31,351.24,2,-9,9,-9,0.14,13.79,336.99,19.31,-9
AOML_Explorer,Ex0514E,94.062,4042005,1:29:19,26.212,-78.867,358.96,-9,1019.95,1017.43,24.84,25,36.387,1.58,77.87,30.57,1019.95,108.5,23.1,296.8,10.01,351.52,2,-9,9,-9,0.15,11.82,338.53,19.36,-9
AOML_Explorer,Ex0514E,94.064,4042005,1:31:52,26.207,-78.85,359.02,-9,1019.94,1017.41,24.83,25.01,36.386,1.59,78.27,30.56,1019.94,108.9,23.1,297.7,11.11,351.62,2,-9,9,-9,0.14,12.23,343.72,19.35,-9
AOML_Explorer,Ex0514E,94.066,4042005,1:34:25,26.202,-78.833,358.93,-9,1020,1017.41,24.83,25.01,36.383,1.59,78.17,30.56,1020,106.3,23,305,9.1,351.68,2,-9,9,-9,0.13,10.27,334.23,19.4,-9
AOML_Explorer,Ex0514E,94.067,4042005,1:36:58,26.197,-78.816,358.95,-9,1019.86,1017.42,24.83,25.01,36.379,1.59,76.82,30.56,1019.86,107.2,23.1,290,10.41,351.61,2,-9,9,-9,0.13,13.23,335.87,19.31,-9
AOML_Explorer,Ex0514E,94.069,4042005,1:39:31,26.192,-78.798,359.03,-9,1019.96,1017.4,24.84,25.03,36.375,1.59,78.05,30.56,1019.96,107.5,23.1,296,10.01,351.88,2,-9,9,-9,0.14,12.09,336.71,19.41,-9
AOML_Explorer,Ex0514E,94.071,4042005,1:42:04,26.187,-78.781,359.15,-9,1019.93,1017.4,24.85,25.04,36.373,1.58,77.94,30.56,1019.93,108,23.1,292.5,11.21,352.02,2,-9,9,-9,0.13,13.34,340.16,19.48,-9
AOML_Explorer,Ex0514E,94.073,4042005,1:44:37,26.182,-78.764,359.17,-9,1019.96,1017.4,24.86,25.05,36.373,1.6,77.94,30.55,1019.96,108.3,23.1,296.7,10.31,352.04,2,-9,9,-9,0.13,12.21,338.6,19.34,-9
AOML_Explorer,Ex0514E,94.074,4042005,1:47:10,26.178,-78.746,359.1,-9,1020.01,1017.41,24.87,25.04,36.376,1.6,78.64,30.55,1020.01,105.9,23.3,300.3,9.8,351.68,2,-9,9,-9,0.13,11.54,335.09,19.38,-9
AOML_Explorer,Ex0514E,94.076,4042005,1:49:43,26.173,-78.729,359.07,-9,1020,1017.4,24.87,25.03,36.378,1.6,77.67,30.55,1020,106.5,23.4,305.1,10.91,351.47,2,-9,9,-9,0.13,11.24,342.23,19.3,-9
AOML_Explorer,Ex0514E,94.078,4042005,1:52:16,26.168,-78.711,359.06,-9,1020.05,1017.44,24.86,24.99,36.39,1.61,78.72,30.54,1020.05,107,23.5,294,10.61,351.13,2,-9,9,-9,0.12,13.06,336.8,19.35,-9
AOML_Explorer,Ex0514E,94.08,4042005,1:54:49,26.163,-78.694,359.35,-9,1020.04,1017.69,24.84,24.93,36.406,1.6,77.98,30.54,1020.04,107.2,23.5,311.7,10.31,350.85,2,-9,9,-9,0.11,9.97,341.75,19.31,-9
AOML_Explorer,Ex0514E,94.082,4042005,1:57:22,26.159,-78.676,359.39,-9,1020.02,1017.41,24.79,24.86,36.425,1.59,78.08,30.53,1020.02,106.9,23.5,306.6,11.11,350.73,2,-9,9,-9,0.11,11.24,343.51,19.32,-9
AOML_Explorer,Ex0514E,94.083,4042005,1:59:55,26.154,-78.658,359.29,-9,1020.07,1017.41,24.75,24.8,36.451,1.6,77.77,30.53,1020.07,107.2,23.7,296.7,12.51,350.4,2,-9,9,-9,0.11,13.72,344.54,19.32,-9
AOML_Explorer,Ex0514E,94.098,4042005,2:21:40,26.11,-78.506,359.1,-9,1020.15,1017.42,24.18,24.39,36.624,1.61,78.69,30.58,1020.15,111,24.3,294.4,12.21,352.77,2,-9,9,-9,0.12,13.5,346.72,19.48,-9
AOML_Explorer,Ex0514E,94.1,4042005,2:24:13,26.104,-78.488,359.28,-9,1020.25,1017.7,24.23,24.36,36.651,1.58,78.69,30.58,1020.25,110.6,24.2,291.5,9.8,351.79,2,-9,9,-9,0.11,12.83,336.29,19.3,-9
AOML_Explorer,Ex0514E,94.102,4042005,2:26:46,26.098,-78.471,359.71,-9,1020.25,1017.68,24.25,24.32,36.67,1.59,78.44,30.58,1020.25,110.6,24.1,303.4,9.7,351.53,2,-9,9,-9,0.1,10.82,339.31,19.29,-9
AOML_Explorer,Ex0514E,94.104,4042005,2:29:19,26.092,-78.453,360.03,-9,1020.13,1017.68,24.22,24.3,36.665,1.63,77.91,30.58,1020.13,110.6,24,300.1,10.01,351.86,2,-9,9,-9,0.11,11.48,340.09,19.34,-9
AOML_Explorer,Ex0514E,94.105,4042005,2:31:52,26.086,-78.436,360.24,-9,1020.19,1017.39,24.18,24.34,36.635,1.62,78.14,30.57,1020.19,110.5,23.9,304.5,12.21,353.06,2,-9,9,-9,0.11,11.53,352.03,19.53,-9
AOML_Explorer,Ex0514E,94.107,4042005,2:34:25,26.08,-78.418,360.14,-9,1020.13,1017.67,24.2,24.34,36.627,1.6,77.91,30.57,1020.13,107.5,23.7,301.4,11.11,352.81,2,-9,9,-9,0.11,11.51,343.27,19.54,-9
AOML_Explorer,Ex0514E,94.109,4042005,2:36:58,26.075,-78.4,359.9,-9,1020.23,1017.72,24.22,24.31,36.637,1.58,78.53,30.57,1020.23,105.5,23.6,299.8,10.31,351.86,2,-9,9,-9,0.11,11.49,337.1,19.63,-9
AOML_Explorer,Ex0514E,94.111,4042005,2:39:31,26.071,-78.383,359.73,-9,1020.24,1017.69,24.21,24.28,36.652,1.6,77.13,30.56,1020.24,105.6,23.4,293.9,10.61,351.55,2,-9,9,-9,0.11,12.4,336.99,19.54,-9
AOML_Explorer,Ex0514E,94.113,4042005,2:42:04,26.066,-78.365,359.43,-9,1020.27,1017.69,24.16,24.42,36.575,1.58,77.85,30.56,1020.27,105.6,23.3,298.9,10.71,353.72,2,-9,9,-9,0.12,11.53,339.69,19.59,-9
AOML_Explorer,Ex0514E,94.114,4042005,2:44:37,26.062,-78.347,359.31,-9,1020.17,1017.69,24.24,24.43,36.581,1.59,77.03,30.56,1020.17,105.9,23.4,297.5,9.8,352.63,2,-9,9,-9,0.11,11.47,335.11,19.6,-9
AOML_Explorer,Ex0514E,94.116,4042005,2:47:10,26.057,-78.33,359.07,-9,1020.12,1017.7,24.29,24.39,36.599,1.57,77.83,30.55,1020.12,105.7,23.4,307.8,9,351.24,2,-9,9,-9,0.12,9.63,333.2,19.61,-9
AOML_Explorer,Ex0514E,94.118,4042005,2:49:43,26.053,-78.312,358.96,-9,1020.13,1017.4,24.28,24.33,36.618,1.6,77.97,30.55,1020.13,105.9,23.4,307,9.8,350.39,2,-9,9,-9,0.12,9.96,337.68,19.67,-9
AOML_Explorer,Ex0514E,94.12,4042005,2:52:16,26.049,-78.295,359.13,-9,1020.02,1017.69,24.24,24.51,36.507,1.62,78.72,30.55,1020.02,104.7,23.2,302.8,9.1,353.43,2,-9,9,-9,0.11,10.17,332.5,19.75,-9
AOML_Explorer,Ex0514E,94.121,4042005,2:54:49,26.044,-78.277,359.04,-9,1019.99,1017.41,24.3,24.64,36.475,1.57,78.08,30.55,1019.99,105.3,23.2,291.1,12.31,354.21,2,-9,9,-9,0.11,13.59,342.38,19.87,-9
AOML_Explorer,Ex0514E,94.123,4042005,2:57:22,26.04,-78.26,358.79,-9,1019.94,1017.38,24.45,24.73,36.451,1.59,78.1,30.54,1019.94,105.1,23.2,294,11.01,352.98,2,-9,9,-9,0.12,12.35,338.95,19.81,-9
AOML_Explorer,Ex0514E,94.125,4042005,2:59:55,26.035,-78.243,358.61,-9,1019.95,1017.18,24.54,24.73,36.454,1.58,78.03,30.54,1019.95,107.9,23.2,302.4,12.21,351.68,2,-9,9,-9,0.12,11.63,350.25,19.87,-9
AOML_Explorer,Ex0514E,94.14,4042005,3:21:40,25.994,-78.095,359.48,-9,1019.94,1017.39,24.61,24.75,36.449,1.6,78.06,30.6,1019.94,107.3,23,305.4,10.61,351.82,2,-9,9,-9,0.12,10.34,343.95,19.92,-9
AOML_Explorer,Ex0514E,94.142,4042005,3:24:13,25.989,-78.078,359.78,-9,1019.97,1017.39,24.59,24.85,36.419,1.59,77.92,30.6,1019.97,107.1,23.1,305.7,9.4,353.64,2,-9,9,-9,0.11,9.83,337.33,19.85,-9
AOML_Explorer,Ex0514E,94.144,4042005,3:26:46,25.984,-78.061,360.67,-9,1019.87,1017.41,24.62,24.93,36.431,1.58,78.09,30.6,1019.87,107.1,23.1,298.2,9.3,355.13,2,-9,9,-9,0.12,11.09,334.72,19.84,-9
AOML_Explorer,Ex0514E,94.145,4042005,3:29:19,25.979,-78.043,360.49,-9,1019.76,1017.43,24.73,24.94,36.437,1.6,78.15,30.6,1019.76,107.3,23.1,303.9,10.81,353.59,2,-9,9,-9,0.13,10.76,344.03,19.86,-9
AOML_Explorer,Ex0514E,94.147,4042005,3:31:52,25.974,-78.026,360.89,-9,1019.91,1017.44,24.76,25.01,36.418,1.58,78.16,30.6,1019.91,107.4,23,295.5,9.3,354.53,2,-9,9,-9,0.13,11.54,334.18,19.84,-9
AOML_Explorer,Ex0514E,94.149,4042005,3:34:25,25.97,-78.009,361.09,-9,1019.87,1017.15,24.8,25.12,36.378,1.59,77.6,30.59,1019.87,107.1,23,302.3,11.21,355.56,2,-9,9,-9,0.13,11.23,345.16,19.88,-9
AOML_Explorer,Ex0514E,94.151,4042005,3:36:58,25.965,-77.992,360.06,-9,1019.81,1017.16,24.89,25.13,36.369,1.58,77.82,30.59,1019.81,107.1,22.9,307.5,11.51,353.45,2,-9,9,-9,0.12,10.44,349.19,19.9,-9
AOML_Explorer,Ex0514E,94.152,4042005,3:39:31,25.96,-77.974,359.81,-9,1019.81,1017.42,24.93,25.13,36.359,1.59,78.46,30.59,1019.81,107.1,22.9,295.5,9.9,352.64,2,-9,9,-9,0.11,11.87,336.6,19.85,-9
AOML_Explorer,Ex0514E,94.154,4042005,3:42:04,25.955,-77.957,360.41,-9,1019.94,1017.42,24.94,25.14,36.351,1.61,78.49,30.58,1019.94,107.5,23,294.3,10.91,353.27,2,-9,9,-9,0.12,12.55,340.52,19.88,-9
AOML_Explorer,Ex0514E,94.156,4042005,3:44:37,25.95,-77.94,360.69,-9,1019.87,1017.42,24.95,25.14,36.351,1.58,77.84,30.58,1019.87,107,23,302.3,10.71,353.38,2,-9,9,-9,0.13,11.22,342.25,19.86,-9
AOML_Explorer,Ex0514E,94.158,4042005,3:47:10,25.945,-77.923,360.9,-9,1019.84,1017.41,24.95,25.14,36.346,1.59,77.7,30.58,1019.84,107.5,23.1,297,11.71,353.59,2,-9,9,-9,0.14,12.66,344.35,19.86,-9
AOML_Explorer,Ex0514E,94.16,4042005,3:49:43,25.941,-77.905,360.75,-9,1019.87,1017.42,24.96,25.15,36.354,1.6,77.91,30.58,1019.87,107.1,23.2,295.7,8.3,353.42,2,-9,9,-9,0.13,11.44,328.64,19.88,-9
AOML_Explorer,Ex0514E,94.161,4042005,3:52:16,25.936,-77.888,360.75,-9,1019.88,1017.41,24.97,25.14,36.358,1.59,78.02,30.57,1019.88,107.5,23.2,298,10.31,353.18,2,-9,9,-9,0.12,11.92,338.68,19.85,-9
AOML_Explorer,Ex0514E,94.163,4042005,3:54:49,25.931,-77.871,361.03,-9,1019.84,1017.43,24.96,25.13,36.363,1.6,78.05,30.57,1019.84,107.4,23.3,295,9.3,353.37,2,-9,9,-9,0.13,11.95,333.03,19.85,-9
AOML_Explorer,Ex0514E,94.165,4042005,3:57:22,25.926,-77.853,361.16,-9,1019.85,1017.14,24.95,25.12,36.364,1.58,78.16,30.57,1019.85,107.6,23.3,298.1,11.31,353.51,2,-9,9,-9,0.13,12.39,342.91,19.83,-9
AOML_Explorer,Ex0514E,94.167,4042005,3:59:55,25.921,-77.836,361.37,-9,1019.78,1017.17,24.94,25.11,36.372,1.61,78.05,30.56,1019.78,107.4,23.4,295.1,10.61,353.69,2,-9,9,-9,0.12,12.53,338.49,19.92,-9
AOML_Explorer,Ex0514E,94.182,4042005,4:21:40,25.879,-77.687,360.89,-9,1019.7,1017.13,24.92,25.13,36.361,1.6,77.16,30.62,1019.7,107.3,23.2,299.6,11.01,353.68,2,-9,9,-9,0.12,11.75,342.66,19.84,-9
AOML_Explorer,Ex0514E,94.183,4042005,4:24:13,25.874,-77.669,361.19,-9,1019.79,1017.42,24.94,25.13,36.367,1.59,77.9,30.62,1019.79,107.1,23.2,293.4,9,353.77,2,-9,9,-9,0.12,11.94,331.5,19.9,-9
AOML_Explorer,Ex0514E,94.185,4042005,4:26:46,25.87,-77.652,361.19,-9,1019.75,1017.16,24.95,25.1,36.371,1.6,78.13,30.62,1019.75,107.2,23.1,304.3,10.41,353.28,2,-9,9,-9,0.12,10.69,341.77,19.89,-9
AOML_Explorer,Ex0514E,94.187,4042005,4:29:19,25.865,-77.635,361.22,-9,1019.78,1017.15,24.94,25.07,36.381,1.56,77.74,30.61,1019.78,107.2,23,297,10.71,353.14,2,-9,9,-9,0.11,12.09,340.34,19.83,-9
AOML_Explorer,Ex0514E,94.189,4042005,4:31:52,25.86,-77.617,361.29,-9,1019.66,1017.17,24.92,25.1,36.39,1.6,76.51,30.61,1019.66,107,22.9,305.3,10.31,353.82,2,-9,9,-9,0.13,10.43,341.86,19.86,-9
AOML_Explorer,Ex0514E,94.191,4042005,4:34:25,25.855,-77.6,361.39,-9,1019.7,1017.16,24.92,25.06,36.409,1.58,77.22,30.61,1019.7,107.3,22.9,301.3,9.4,353.49,2,-9,9,-9,0.15,10.87,336.14,20.02,-9
AOML_Explorer,Ex0514E,94.192,4042005,4:36:58,25.85,-77.583,361.06,-9,1019.72,1017.17,24.91,25.01,36.426,1.58,78.03,30.61,1019.72,107,22.8,295.3,8.8,352.48,2,-9,9,-9,0.13,11.56,331.31,19.92,-9
AOML_Explorer,Ex0514E,94.194,4042005,4:39:31,25.845,-77.566,360.87,-9,1019.75,1017.15,24.88,24.87,36.449,1.58,78.26,30.61,1019.75,107,22.6,298.3,8.8,351.01,2,-9,9,-9,0.11,11.14,332.43,20.04,-9
AOML_Explorer,Ex0514E,94.196,4042005,4:42:04,25.841,-77.549,361.04,-9,1019.67,1017.14,24.8,24.59,36.512,1.59,78.21,30.6,1019.67,106.4,22.3,301.5,10.71,348.59,2,-9,9,-9,0.11,11.16,342.92,19.96,-9
AOML_Explorer,Ex0514E,94.198,4042005,4:44:37,25.836,-77.532,361.08,-9,1019.69,1017.4,24.64,24.8,36.401,1.58,77.58,30.6,1019.69,107.3,22.2,302,7.9,353.55,2,-9,9,-9,0.13,10.02,329.93,19.91,-9
AOML_Explorer,Ex0514E,94.199,4042005,4:47:10,25.832,-77.516,360.83,-9,1019.62,1017.14,24.55,24.81,36.457,1.6,78.18,30.59,1019.62,106.6,22.1,310,8.5,354.63,2,-9,9,-9,0.12,8.91,334.29,19.92,-9
AOML_Explorer,Ex0514E,94.201,4042005,4:49:43,25.827,-77.499,360.43,-9,1019.67,1017.14,24.67,24.58,36.495,1.59,77.53,30.59,1019.67,107.3,22.2,304,8,349.55,2,-9,9,-9,0.14,9.52,331.16,19.93,-9
AOML_Explorer,Ex0514E,94.203,4042005,4:52:16,25.822,-77.482,360.33,-9,1019.44,1017.15,24.52,24.62,36.465,1.6,77.94,30.59,1019.44,107,22.3,296.9,11.61,351.98,2,-9,9,-9,0.14,12.06,345.91,19.9,-9
AOML_Explorer,Ex0514E,94.205,4042005,4:54:49,25.818,-77.466,359.95,-9,1019.64,1017.16,24.48,24.7,36.451,1.61,78.75,30.58,1019.64,107.8,22.4,302.4,10.21,353.15,2,-9,9,-9,0.13,10.49,342.78,19.82,-9
AOML_Explorer,Ex0514E,94.207,4042005,4:57:22,25.813,-77.449,359.55,-9,1019.56,1017.12,24.53,24.75,36.452,1.61,78.23,30.58,1019.56,107.1,22.6,285.9,10.11,352.92,2,-9,9,-9,0.12,13.08,335.04,19.76,-9
AOML_Explorer,Ex0514E,94.208,4042005,4:59:55,25.808,-77.432,359.26,-9,1019.56,1017.15,24.59,24.76,36.453,1.58,78.11,30.58,1019.56,107.5,22.7,293,10.51,351.87,2,-9,9,-9,0.12,12.29,339.29,19.87,-9
AOML_Explorer,Ex0514E,94.223,4042005,5:21:40,25.766,-77.284,357.72,-9,1019.35,1016.87,24.38,24.45,36.42,1.56,78.79,30.63,1019.35,107.1,23.5,306,9,349.14,2,-9,9,-9,0.11,10.05,334.14,19.58,-9
AOML_Explorer,Ex0514E,94.225,4042005,5:24:13,25.762,-77.266,357.95,-9,1019.29,1016.59,24.35,24.45,36.419,1.58,77.5,30.63,1019.29,105,23.5,296.9,11.11,349.78,2,-9,9,-9,0.12,12.49,338.68,19.6,-9
AOML_Explorer,Ex0514E,94.227,4042005,5:26:46,25.758,-77.248,358.15,-9,1019.38,1016.6,24.33,24.46,36.45,1.56,78.06,30.63,1019.38,100.6,23.5,295.9,11.51,350.4,2,-9,9,-9,0.12,12.88,335.36,19.54,-9
AOML_Explorer,Ex0514E,94.229,4042005,5:29:19,25.755,-77.23,358.21,-9,1019.28,1016.59,24.34,24.51,36.453,1.57,77.82,30.62,1019.28,102.6,23.5,295.9,10.31,350.83,2,-9,9,-9,0.12,12.15,332.51,19.54,-9
AOML_Explorer,Ex0514E,94.23,4042005,5:31:52,25.751,-77.212,358.4,-9,1019.42,1016.6,24.34,24.67,36.44,1.56,77.75,30.62,1019.42,103.7,23.4,305,11.41,353.12,2,-9,9,-9,0.11,11.19,342.63,19.48,-9
AOML_Explorer,Ex0514E,94.232,4042005,5:34:25,25.747,-77.195,358.63,-9,1019.31,1016.59,24.43,24.81,36.436,1.58,77.93,30.62,1019.31,104.3,23.2,295.6,10.71,353.96,2,-9,9,-9,0.11,12.47,336.26,19.48,-9
AOML_Explorer,Ex0514E,94.234,4042005,5:36:58,25.743,-77.177,358.74,-9,1019.34,1016.57,24.6,24.78,36.446,1.57,78.21,30.62,1019.34,103.5,23.2,296.6,11.21,351.41,2,-9,9,-9,0.13,12.51,337.79,19.42,-9
AOML_Explorer,Ex0514E,94.236,4042005,5:39:31,25.739,-77.159,359.09,-9,1019.29,1016.6,24.64,24.69,36.442,1.54,78.11,30.61,1019.29,103.3,23.1,305.5,9.6,349.91,2,-9,9,-9,0.14,10.36,333.88,19.35,-9
AOML_Explorer,Ex0514E,94.238,4042005,5:42:04,25.735,-77.142,359.73,-9,1019.19,1016.85,24.58,24.71,36.317,1.56,77.35,30.61,1019.19,104.2,22.9,301.2,9.3,351.61,2,-9,9,-9,0.13,11.01,332.23,19.37,-9
AOML_Explorer,Ex0514E,94.239,4042005,5:44:37,25.731,-77.124,359.81,-9,1019.22,1016.6,24.55,24.74,36.405,1.56,77.83,30.6,1019.22,104.5,22.7,298.8,10.91,352.55,2,-9,9,-9,0.13,12.07,339.14,19.49,-9
AOML_Explorer,Ex0514E,94.241,4042005,5:47:10,25.727,-77.107,359.63,-9,1019.27,1016.57,24.58,24.72,36.464,1.55,77.12,30.6,1019.27,104.8,23,298.2,8,351.66,2,-9,9,-9,0.11,11.19,325.26,19.62,-9
AOML_Explorer,Ex0514E,94.243,4042005,5:49:43,25.723,-77.089,359.74,-9,1019.11,1016.57,24.6,24.68,36.46,1.56,77.65,30.6,1019.11,104.5,23.2,304.1,10.41,350.98,2,-9,9,-9,0.13,11.06,338.03,19.55,-9
AOML_Explorer,Ex0514E,94.245,4042005,5:52:16,25.719,-77.072,359.97,-9,1019.04,1016.32,24.54,24.71,36.458,1.55,77.26,30.6,1019.04,102.2,23.2,306.3,10.91,352.41,2,-9,9,-9,0.13,10.99,338.72,19.61,-9
AOML_Explorer,Ex0514E,94.246,4042005,5:54:49,25.716,-77.054,359.99,-9,1019.04,1016.57,24.56,24.79,36.442,1.54,77.91,30.6,1019.04,95.3,23.2,299.9,9.6,353.17,2,-9,9,-9,0.12,11.25,324.36,19.66,-9
AOML_Explorer,Ex0514E,94.248,4042005,5:57:22,25.715,-77.036,360.16,-9,1019.06,1016.58,24.62,24.79,36.453,1.55,78.07,30.6,1019.06,94.5,23.2,295.9,9.3,352.62,2,-9,9,-9,0.13,11.7,320.74,19.58,-9
AOML_Explorer,Ex0514E,94.25,4042005,5:59:55,25.714,-77.018,360.25,-9,1018.94,1016.29,24.65,24.64,36.478,1.55,77.52,30.59,1018.94,94.5,23.2,289.2,10.41,350.31,2,-9,9,-9,0.12,13.2,323.2,19.76,-9
AOML_Explorer,Ex0514E,94.265,4042005,6:21:40,25.702,-76.863,360.03,-9,1018.68,1016.07,24.64,24.74,36.327,1.54,78.1,30.65,1018.68,95.1,23.6,302.1,10.31,351.42,2,-9,9,-9,0.14,11.22,327.25,19.57,-9
AOML_Explorer,Ex0514E,94.267,4042005,6:24:13,25.7,-76.845,359.71,-9,1018.55,1015.79,24.61,24.73,36.328,1.56,77.5,30.65,1018.55,95.3,23.6,293.3,13.61,351.27,2,-9,9,-9,0.14,14.44,336.45,19.56,-9
AOML_Explorer,Ex0514E,94.269,4042005,6:26:46,25.697,-76.826,359.74,-9,1018.55,1016.06,24.59,24.72,36.328,1.55,77.6,30.65,1018.55,101.6,23.8,297.5,11.21,351.44,2,-9,9,-9,0.14,12.31,335.8,19.58,-9
AOML_Explorer,Ex0514E,94.27,4042005,6:29:19,25.694,-76.808,359.42,-9,1018.61,1016.06,24.58,24.72,36.327,1.58,77.19,30.65,1018.61,100.4,23.9,295.4,10.11,351.18,2,-9,9,-9,0.14,12.34,328.92,19.43,-9
AOML_Explorer,Ex0514E,94.272,4042005,6:31:52,25.691,-76.79,359.25,-9,1018.48,1015.83,24.58,24.72,36.335,1.59,78.64,30.65,1018.48,100.6,24,299.9,12.41,351.17,2,-9,9,-9,0.15,12.69,339.99,19.44,-9
AOML_Explorer,Ex0514E,94.274,4042005,6:34:25,25.688,-76.771,359.1,-9,1018.6,1016.08,24.58,24.72,36.336,1.56,77.15,30.65,1018.6,100.4,24.1,305.1,9.9,350.86,2,-9,9,-9,0.15,10.78,330.38,19.5,-9
AOML_Explorer,Ex0514E,94.276,4042005,6:36:58,25.685,-76.752,359.06,-9,1018.53,1015.83,24.58,24.72,36.336,1.55,76.02,30.65,1018.53,100.8,24.1,289.8,11.41,350.87,2,-9,9,-9,0.15,13.97,331.51,19.49,-9
AOML_Explorer,Ex0514E,94.277,4042005,6:39:31,25.682,-76.734,359.11,-9,1018.54,1015.79,24.57,24.71,36.342,1.58,77.62,30.64,1018.54,101,24.2,304.5,11.81,350.99,2,-9,9,-9,0.14,11.69,339.18,19.55,-9
AOML_Explorer,Ex0514E,94.279,4042005,6:42:04,25.678,-76.715,358.83,-9,1018.62,1016.07,24.57,24.7,36.323,1.56,77.48,30.64,1018.62,100.4,24.3,303.9,9.4,350.55,2,-9,9,-9,0.16,10.86,327.36,19.42,-9
AOML_Explorer,Ex0514E,94.281,4042005,6:44:37,25.675,-76.697,358.8,-9,1018.5,1015.83,24.57,24.68,36.363,1.57,77.91,30.64,1018.5,101.1,24.2,294.4,12.01,350.35,2,-9,9,-9,0.15,13.56,335.47,19.5,-9
AOML_Explorer,Ex0514E,94.283,4042005,6:47:10,25.672,-76.678,358.79,-9,1018.69,1015.84,24.55,24.65,36.376,1.56,77.97,30.64,1018.69,100.9,24.2,300.3,9.6,350.21,2,-9,9,-9,0.15,11.5,327.66,19.59,-9
AOML_Explorer,Ex0514E,94.285,4042005,6:49:43,25.669,-76.659,358.75,-9,1018.65,1015.82,24.53,24.67,36.356,1.59,78.32,30.64,1018.65,100,24.1,310.3,9.8,350.61,2,-9,9,-9,0.15,9.8,330.97,19.52,-9
AOML_Explorer,Ex0514E,94.286,4042005,6:52:16,25.666,-76.641,358.71,-9,1018.41,1016.07,24.52,24.66,36.372,1.6,77.23,30.63,1018.41,100.9,24.1,300.5,11.21,350.43,2,-9,9,-9,0.14,12.02,335.09,19.58,-9
AOML_Explorer,Ex0514E,94.288,4042005,6:54:49,25.662,-76.622,358.5,-9,1018.54,1016.05,24.53,24.61,36.398,1.56,77.59,30.63,1018.54,100.2,24,292.7,9.3,349.58,2,-9,9,-9,0.14,12.49,323.89,19.53,-9
AOML_Explorer,Ex0514E,94.29,4042005,6:57:22,25.659,-76.604,358.3,-9,1018.52,1016.04,24.49,24.52,36.442,1.59,78.21,30.63,1018.52,98.7,23.9,299.6,10.11,348.79,2,-9,9,-9,0.15,11.54,328.83,19.57,-9
AOML_Explorer,Ex0514E,94.292,4042005,6:59:55,25.657,-76.585,358.18,-9,1018.41,1016.05,24.44,24.64,36.368,1.56,77.63,30.63,1018.41,99.6,23.5,302.7,9.4,350.92,2,-9,9,-9,0.16,10.59,328.02,19.65,-9
AOML_Explorer,Ex0514E,94.307,4042005,7:21:40,25.61,-76.439,359.13,-9,1018.26,1015.53,24.34,24.42,36.442,1.6,77.65,30.68,1018.26,114.7,23,285.8,11.21,350.38,2,-9,9,-9,0.18,14.38,344.73,19.72,-9
AOML_Explorer,Ex0514E,94.308,4042005,7:24:13,25.603,-76.423,358.88,-9,1018.24,1015.82,24.31,24.41,36.45,1.59,77.69,30.68,1018.24,115.3,23.2,301.2,8.6,350.3,2,-9,9,-9,0.16,10.8,339.4,19.62,-9
AOML_Explorer,Ex0514E,94.31,4042005,7:26:46,25.596,-76.407,358.78,-9,1018.15,1015.25,24.3,24.4,36.445,1.58,77.69,30.68,1018.15,115.8,23.3,284.8,11.41,350.21,2,-9,9,-9,0.18,14.74,345.07,19.73,-9
AOML_Explorer,Ex0514E,94.312,4042005,7:29:19,25.589,-76.39,358.62,-9,1018.07,1015.54,24.28,24.4,36.44,1.55,78.71,30.68,1018.07,116.1,23.3,278.2,10.91,350.17,2,-9,9,-9,0.16,15.51,340.47,19.59,-9
AOML_Explorer,Ex0514E,94.314,4042005,7:31:52,25.582,-76.374,358.44,-9,1018.03,1015.82,24.28,24.38,36.445,1.57,78.23,30.68,1018.03,116.1,23.3,287.6,10.61,349.83,2,-9,9,-9,0.16,13.91,343.84,19.63,-9
AOML_Explorer,Ex0514E,94.316,4042005,7:34:25,25.575,-76.358,358.28,-9,1018.25,1015.56,24.27,24.39,36.44,1.58,77.45,30.67,1018.25,116,23.3,286,9.9,349.91,2,-9,9,-9,0.17,13.8,340.69,19.59,-9
AOML_Explorer,Ex0514E,94.317,4042005,7:36:58,25.567,-76.341,358.2,-9,1018.2,1015.8,24.27,24.35,36.457,1.56,77.6,30.67,1018.2,117,23.5,289.4,8.4,349.34,2,-9,9,-9,0.16,12.72,336.09,19.55,-9
AOML_Explorer,Ex0514E,94.319,4042005,7:39:31,25.56,-76.325,358,-9,1018.19,1015.54,24.25,24.33,36.465,1.58,78.26,30.67,1018.19,116.3,23.5,284.4,11.41,349.19,2,-9,9,-9,0.18,15.1,344.99,19.62,-9
AOML_Explorer,Ex0514E,94.321,4042005,7:42:04,25.552,-76.308,358.05,-9,1018.24,1015.54,24.22,24.28,36.485,1.56,78.53,30.66,1018.24,117,23.5,293.5,10.71,348.94,2,-9,9,-9,0.18,13.15,346.55,19.62,-9
AOML_Explorer,Ex0514E,94.323,4042005,7:44:37,25.545,-76.292,357.88,-9,1018.22,1015.79,24.19,24.22,36.5,1.57,78.11,30.66,1018.22,117,23.7,298.3,7.6,348.42,2,-9,9,-9,0.19,11.37,334.55,19.55,-9
AOML_Explorer,Ex0514E,94.324,4042005,7:47:10,25.537,-76.276,357.94,-9,1018.28,1015.81,24.14,24.14,36.54,1.56,78.37,30.66,1018.28,116.5,23.8,288.3,9.5,348.21,2,-9,9,-9,0.17,13.48,339.53,19.61,-9
AOML_Explorer,Ex0514E,94.326,4042005,7:49:43,25.53,-76.259,357.82,-9,1018.29,1015.56,24.07,24.06,36.563,1.57,78.21,30.66,1018.29,116.5,23.9,283.6,10.91,348.03,2,-9,9,-9,0.19,14.93,342.28,19.69,-9
AOML_Explorer,Ex0514E,94.328,4042005,7:52:16,25.522,-76.242,357.57,-9,1018.22,1015.53,24.01,23.95,36.589,1.59,77.99,30.65,1018.22,116.5,23.9,280.4,12.21,347.11,2,-9,9,-9,0.2,16.29,344.49,19.59,-9
AOML_Explorer,Ex0514E,94.33,4042005,7:54:49,25.515,-76.226,357.17,-9,1018.48,1015.8,23.91,23.87,36.611,1.58,77.77,30.65,1018.48,116.6,24,296.6,10.21,347.07,2,-9,9,-9,0.21,12.61,345.04,19.56,-9
AOML_Explorer,Ex0514E,94.332,4042005,7:57:22,25.507,-76.209,356.6,-9,1018.47,1016.06,23.83,23.85,36.601,1.57,77.86,30.65,1018.47,117.5,23.9,286.5,9.3,347.48,2,-9,9,-9,0.21,13.72,338.75,19.49,-9
AOML_Explorer,Ex0514E,94.333,4042005,7:59:55,25.499,-76.192,356.05,-9,1018.56,1016.02,23.78,23.84,36.611,1.56,77.47,30.65,1018.56,117.5,24.1,297.1,9.5,347.44,2,-9,9,-9,0.2,12.31,342.03,19.5,-9
AOML_Explorer,Ex0514E,94.348,4042005,8:21:40,25.44,-76.053,355.98,-9,1018.48,1015.82,24.21,24.41,36.561,1.55,76.07,30.7,1018.48,120.4,22.9,295.1,10.21,348.87,2,-9,9,-9,0.11,11.93,351.36,19.67,-9
AOML_Explorer,Ex0514E,94.35,4042005,8:24:13,25.432,-76.037,357.56,-9,1018.48,1015.52,24.25,24.44,36.555,1.59,78.22,30.7,1018.48,121.1,23,292.3,12.31,350.24,2,-9,9,-9,0.1,13.59,358.28,19.66,-9
AOML_Explorer,Ex0514E,94.352,4042005,8:26:46,25.424,-76.022,358.69,-9,1018.5,1015.83,24.28,24.43,36.573,1.57,77.71,30.7,1018.5,121.2,23,287.2,11.31,350.85,2,-9,9,-9,0.11,13.93,351.39,19.64,-9
AOML_Explorer,Ex0514E,94.354,4042005,8:29:19,25.415,-76.006,359.46,-9,1018.53,1016.03,24.3,24.42,36.574,1.58,77.68,30.7,1018.53,121,23.3,279.5,8.7,351.24,2,-9,9,-9,0.12,13.76,339.55,19.65,-9